Time,TemperatureF,DewpointF,PressureIn,WindDirection,WindDirectionDegrees,WindSpeedMPH,WindSpeedGustMPH,Humidity,HourlyPrecipIn,Conditions,Clouds,dailyrainin,SoftwareType,DateUTC
2013-12-06 00:01:00,18.9,15.3,30.14,North,0,3.8,6.7,86,0.00,,,0.00,WUHU216HW,2013-12-06 06:01:00,
2013-12-06 00:06:00,18.7,15.1,30.14,NNW,338,1.1,4.9,86,0.00,,,0.00,WUHU216HW,2013-12-06 06:06:00,
2013-12-06 00:11:00,18.7,15.1,30.12,North,0,3.6,4.9,86,0.00,,,0.00,WUHU216HW,2013-12-06 06:11:00,
2013-12-06 00:16:00,18.7,15.1,30.11,NNE,23,5.4,5.8,86,0.00,,,0.00,WUHU216HW,2013-12-06 06:16:00,
2013-12-06 00:21:00,18.7,15.1,30.12,North,0,3.4,5.8,86,0.00,,,0.00,WUHU216HW,2013-12-06 06:21:00,
2013-12-06 00:26:00,18.7,15.1,30.11,NNW,338,4.9,4.9,86,0.00,,,0.00,WUHU216HW,2013-12-06 06:26:00,
2013-12-06 00:31:00,18.7,15.1,30.10,North,0,3.8,4.9,86,0.00,,,0.00,WUHU216HW,2013-12-06 06:31:00,
2013-12-06 00:36:00,18.5,14.9,30.10,NNE,23,2.5,5.8,86,0.00,,,0.00,WUHU216HW,2013-12-06 06:36:00,
2013-12-06 00:41:00,18.7,15.1,30.10,North,0,6.9,7.6,86,0.00,,,0.00,WUHU216HW,2013-12-06 06:41:00,
2013-12-06 00:46:00,18.7,15.1,30.11,NNE,23,6.0,7.6,86,0.00,,,0.00,WUHU216HW,2013-12-06 06:46:00,
2013-12-06 00:51:00,18.7,15.1,30.11,NNE,23,2.7,6.0,86,0.00,,,0.00,WUHU216HW,2013-12-06 06:51:00,
2013-12-06 00:56:00,18.7,15.1,30.11,North,0,3.1,5.8,86,0.00,,,0.00,WUHU216HW,2013-12-06 06:56:00,
2013-12-06 01:01:00,18.7,14.9,30.11,North,0,2.2,4.3,85,0.00,,,0.00,WUHU216HW,2013-12-06 07:01:00,
2013-12-06 01:06:00,18.7,14.9,30.10,NNE,23,3.4,4.5,85,0.00,,,0.00,WUHU216HW,2013-12-06 07:06:00,
2013-12-06 01:11:00,18.7,14.9,30.11,North,0,1.6,4.5,85,0.00,,,0.00,WUHU216HW,2013-12-06 07:11:00,
2013-12-06 01:16:00,18.7,14.9,30.11,North,0,2.0,5.4,85,0.00,,,0.00,WUHU216HW,2013-12-06 07:16:00,
2013-12-06 01:21:00,18.9,15.0,30.11,NE,45,4.0,5.4,85,0.00,,,0.00,WUHU216HW,2013-12-06 07:21:00,
2013-12-06 01:26:00,18.9,14.8,30.12,NW,315,3.4,6.9,84,0.00,,,0.00,WUHU216HW,2013-12-06 07:26:00,
2013-12-06 01:31:00,18.9,14.8,30.12,North,0,2.9,6.9,84,0.00,,,0.00,WUHU216HW,2013-12-06 07:31:00,
2013-12-06 01:36:00,19.1,14.9,30.12,WNW,293,2.5,5.1,84,0.00,,,0.00,WUHU216HW,2013-12-06 07:36:00,
2013-12-06 01:41:00,19.1,14.9,30.11,North,0,2.2,6.9,84,0.00,,,0.00,WUHU216HW,2013-12-06 07:41:00,
2013-12-06 01:46:00,18.9,14.8,30.12,NW,315,2.5,6.9,84,0.00,,,0.00,WUHU216HW,2013-12-06 07:46:00,
2013-12-06 01:51:00,18.9,14.8,30.11,NNW,338,3.8,4.3,84,0.00,,,0.00,WUHU216HW,2013-12-06 07:51:00,
2013-12-06 01:56:00,18.7,14.9,30.11,North,0,2.5,4.3,85,0.00,,,0.00,WUHU216HW,2013-12-06 07:56:00,
2013-12-06 02:01:00,18.5,14.7,30.10,North,0,2.2,6.0,85,0.00,,,0.00,WUHU216HW,2013-12-06 08:01:00,
2013-12-06 02:06:00,18.5,14.7,30.11,NNE,23,4.0,6.5,85,0.00,,,0.00,WUHU216HW,2013-12-06 08:06:00,
2013-12-06 02:11:00,18.4,14.5,30.10,North,0,6.9,6.9,85,0.00,,,0.00,WUHU216HW,2013-12-06 08:11:00,
2013-12-06 02:17:00,18.4,14.8,30.11,North,0,1.1,6.9,86,0.00,,,0.00,WUHU216HW,2013-12-06 08:17:00,
2013-12-06 02:22:00,18.4,14.8,30.11,North,0,4.9,5.6,86,0.00,,,0.00,WUHU216HW,2013-12-06 08:22:00,
2013-12-06 02:27:00,18.4,14.8,30.12,NNW,338,2.5,5.6,86,0.00,,,0.00,WUHU216HW,2013-12-06 08:27:00,
2013-12-06 02:32:00,18.4,14.8,30.11,North,0,4.3,5.4,86,0.00,,,0.00,WUHU216HW,2013-12-06 08:32:00,
2013-12-06 02:37:00,18.4,14.8,30.10,North,0,4.0,6.3,86,0.00,,,0.00,WUHU216HW,2013-12-06 08:37:00,
2013-12-06 02:42:00,18.4,15.0,30.10,North,0,3.6,7.4,87,0.00,,,0.00,WUHU216HW,2013-12-06 08:42:00,
2013-12-06 02:47:00,18.4,15.0,30.11,NNE,23,3.4,7.4,87,0.00,,,0.00,WUHU216HW,2013-12-06 08:47:00,
2013-12-06 02:52:00,18.4,15.0,30.10,North,0,5.4,7.6,87,0.00,,,0.00,WUHU216HW,2013-12-06 08:52:00,
2013-12-06 02:57:00,18.2,14.9,30.10,NNE,23,2.0,7.6,87,0.00,,,0.00,WUHU216HW,2013-12-06 08:57:00,
2013-12-06 03:02:00,18.2,14.9,30.11,North,0,5.4,6.7,87,0.00,,,0.00,WUHU216HW,2013-12-06 09:02:00,
2013-12-06 03:07:00,18.2,14.9,30.10,North,0,2.2,7.2,87,0.00,,,0.00,WUHU216HW,2013-12-06 09:07:00,
2013-12-06 03:12:00,18.2,14.9,30.10,North,0,4.7,7.2,87,0.00,,,0.00,WUHU216HW,2013-12-06 09:12:00,
2013-12-06 03:17:00,18.2,14.9,30.11,North,0,2.9,5.8,87,0.00,,,0.00,WUHU216HW,2013-12-06 09:17:00,
2013-12-06 03:22:00,18.2,14.6,30.11,North,0,3.8,5.8,86,0.00,,,0.00,WUHU216HW,2013-12-06 09:22:00,
2013-12-06 03:27:00,18.4,14.8,30.12,North,0,5.4,6.0,86,0.00,,,0.00,WUHU216HW,2013-12-06 09:27:00,
2013-12-06 03:32:00,18.4,14.8,30.12,North,0,4.0,6.0,86,0.00,,,0.00,WUHU216HW,2013-12-06 09:32:00,
2013-12-06 03:37:00,18.4,14.8,30.12,NNE,23,3.6,6.0,86,0.00,,,0.00,WUHU216HW,2013-12-06 09:37:00,
2013-12-06 03:42:00,18.4,14.8,30.12,NNW,338,2.2,6.0,86,0.00,,,0.00,WUHU216HW,2013-12-06 09:42:00,
2013-12-06 03:47:00,18.4,15.0,30.12,NNE,23,5.6,5.6,87,0.00,,,0.00,WUHU216HW,2013-12-06 09:47:00,
2013-12-06 03:52:00,18.4,15.0,30.12,North,0,2.7,6.9,87,0.00,,,0.00,WUHU216HW,2013-12-06 09:52:00,
2013-12-06 03:57:00,18.2,14.9,30.11,North,0,3.6,6.9,87,0.00,,,0.00,WUHU216HW,2013-12-06 09:57:00,
2013-12-06 04:02:00,18.2,14.9,30.11,NNW,338,2.0,4.7,87,0.00,,,0.00,WUHU216HW,2013-12-06 10:02:00,
2013-12-06 04:07:00,18.2,14.6,30.10,NNE,23,6.9,6.9,86,0.00,,,0.00,WUHU216HW,2013-12-06 10:07:00,
2013-12-06 04:12:00,18.0,14.4,30.10,North,0,5.1,6.9,86,0.00,,,0.00,WUHU216HW,2013-12-06 10:12:00,
2013-12-06 04:17:00,18.0,14.7,30.09,NNW,338,3.8,5.6,87,0.00,,,0.00,WUHU216HW,2013-12-06 10:17:00,
2013-12-06 04:22:00,18.0,14.7,30.09,North,0,3.1,8.7,87,0.00,,,0.00,WUHU216HW,2013-12-06 10:22:00,
2013-12-06 04:27:00,18.0,14.7,30.09,North,0,3.1,8.7,87,0.00,,,0.00,WUHU216HW,2013-12-06 10:27:00,
2013-12-06 04:32:00,18.0,14.7,30.10,North,0,3.8,6.7,87,0.00,,,0.00,WUHU216HW,2013-12-06 10:32:00,
2013-12-06 04:37:00,18.0,14.7,30.10,North,0,6.3,6.7,87,0.00,,,0.00,WUHU216HW,2013-12-06 10:37:00,
2013-12-06 04:42:00,18.0,14.7,30.11,NNE,23,3.4,6.5,87,0.00,,,0.00,WUHU216HW,2013-12-06 10:42:00,
2013-12-06 04:47:00,17.8,14.5,30.10,North,0,3.1,6.5,87,0.00,,,0.00,WUHU216HW,2013-12-06 10:47:00,
2013-12-06 04:52:00,17.8,14.5,30.10,NNE,23,6.0,6.0,87,0.00,,,0.00,WUHU216HW,2013-12-06 10:52:00,
2013-12-06 04:57:00,17.8,14.5,30.11,North,0,5.6,6.9,87,0.00,,,0.00,WUHU216HW,2013-12-06 10:57:00,
2013-12-06 05:02:00,17.8,14.5,30.11,North,0,4.9,6.9,87,0.00,,,0.00,WUHU216HW,2013-12-06 11:02:00,
2013-12-06 05:07:00,17.8,14.5,30.11,North,0,2.5,6.0,87,0.00,,,0.00,WUHU216HW,2013-12-06 11:07:00,
2013-12-06 05:12:00,17.8,14.5,30.12,North,0,7.2,7.2,87,0.00,,,0.00,WUHU216HW,2013-12-06 11:12:00,
2013-12-06 05:17:00,17.8,14.5,30.10,North,0,3.4,7.2,87,0.00,,,0.00,WUHU216HW,2013-12-06 11:17:00,
2013-12-06 05:22:00,17.8,14.5,30.11,NNE,23,6.3,6.7,87,0.00,,,0.00,WUHU216HW,2013-12-06 11:22:00,
2013-12-06 05:27:00,17.8,14.5,30.10,North,0,4.0,7.6,87,0.00,,,0.00,WUHU216HW,2013-12-06 11:27:00,
2013-12-06 05:32:00,17.8,14.5,30.11,North,0,2.9,7.6,87,0.00,,,0.00,WUHU216HW,2013-12-06 11:32:00,
2013-12-06 05:37:00,17.8,14.5,30.12,North,0,2.9,5.6,87,0.00,,,0.00,WUHU216HW,2013-12-06 11:37:00,
2013-12-06 05:42:00,17.8,14.5,30.13,NNE,23,5.8,5.8,87,0.00,,,0.00,WUHU216HW,2013-12-06 11:42:00,
2013-12-06 05:47:00,17.8,14.5,30.13,NNE,23,4.5,7.6,87,0.00,,,0.00,WUHU216HW,2013-12-06 11:47:00,
2013-12-06 05:52:00,17.8,14.5,30.12,North,0,4.0,7.6,87,0.00,,,0.00,WUHU216HW,2013-12-06 11:52:00,
2013-12-06 05:57:00,17.8,14.5,30.13,NNW,338,5.8,7.4,87,0.00,,,0.00,WUHU216HW,2013-12-06 11:57:00,
2013-12-06 06:02:00,17.8,14.5,30.13,NNW,338,6.5,9.6,87,0.00,,,0.00,WUHU216HW,2013-12-06 12:02:00,
2013-12-06 06:07:00,17.6,14.3,30.13,North,0,5.4,9.6,87,0.00,,,0.00,WUHU216HW,2013-12-06 12:07:00,
2013-12-06 06:12:00,17.8,14.2,30.13,NNW,338,4.9,8.1,86,0.00,,,0.00,WUHU216HW,2013-12-06 12:12:00,
2013-12-06 06:17:00,17.6,14.0,30.12,North,0,3.8,8.7,86,0.00,,,0.00,WUHU216HW,2013-12-06 12:17:00,
2013-12-06 06:22:00,17.6,14.0,30.12,North,0,5.4,8.9,86,0.00,,,0.00,WUHU216HW,2013-12-06 12:22:00,
2013-12-06 06:27:00,17.6,14.0,30.12,NNW,338,4.3,8.9,86,0.00,,,0.00,WUHU216HW,2013-12-06 12:27:00,
2013-12-06 06:32:00,17.6,14.0,30.13,North,0,2.9,7.8,86,0.00,,,0.00,WUHU216HW,2013-12-06 12:32:00,
2013-12-06 06:37:00,17.6,14.0,30.14,NNE,23,7.4,7.4,86,0.00,,,0.00,WUHU216HW,2013-12-06 12:37:00,
2013-12-06 06:42:00,17.5,13.9,30.13,NNE,23,4.7,7.4,86,0.00,,,0.00,WUHU216HW,2013-12-06 12:42:00,
2013-12-06 06:47:00,17.5,13.9,30.13,NNW,338,3.4,6.3,86,0.00,,,0.00,WUHU216HW,2013-12-06 12:47:00,
2013-12-06 06:52:00,17.5,14.1,30.14,NNW,338,4.7,6.0,87,0.00,,,0.00,WUHU216HW,2013-12-06 12:52:00,
2013-12-06 06:57:00,17.3,14.0,30.14,North,0,5.6,6.3,87,0.00,,,0.00,WUHU216HW,2013-12-06 12:57:00,
2013-12-06 07:02:00,17.3,14.0,30.14,North,0,5.8,6.3,87,0.00,,,0.00,WUHU216HW,2013-12-06 13:02:00,
2013-12-06 07:07:00,17.3,14.0,30.14,North,0,4.9,6.3,87,0.00,,,0.00,WUHU216HW,2013-12-06 13:07:00,
2013-12-06 07:12:00,17.1,13.8,30.15,North,0,6.5,6.5,87,0.00,,,0.00,WUHU216HW,2013-12-06 13:12:00,
2013-12-06 07:17:00,17.1,13.8,30.15,North,0,3.4,6.5,87,0.00,,,0.00,WUHU216HW,2013-12-06 13:17:00,
2013-12-06 07:22:00,17.1,14.0,30.15,North,0,3.4,6.0,88,0.00,,,0.00,WUHU216HW,2013-12-06 13:22:00,
2013-12-06 07:27:00,17.1,14.0,30.15,North,0,3.1,6.0,88,0.00,,,0.00,WUHU216HW,2013-12-06 13:27:00,
2013-12-06 07:32:00,17.1,14.0,30.15,NNE,23,4.0,5.4,88,0.00,,,0.00,WUHU216HW,2013-12-06 13:32:00,
2013-12-06 07:37:00,17.1,13.8,30.15,North,0,2.0,4.7,87,0.00,,,0.00,WUHU216HW,2013-12-06 13:37:00,
2013-12-06 07:42:00,17.1,13.8,30.15,NNE,23,5.1,5.6,87,0.00,,,0.00,WUHU216HW,2013-12-06 13:42:00,
2013-12-06 07:47:00,16.9,13.6,30.15,North,0,5.6,5.6,87,0.00,,,0.00,WUHU216HW,2013-12-06 13:47:00,
2013-12-06 07:52:00,17.1,13.8,30.15,NNE,23,4.3,5.6,87,0.00,,,0.00,WUHU216HW,2013-12-06 13:52:00,
2013-12-06 07:57:00,17.1,13.8,30.16,North,0,2.5,5.4,87,0.00,,,0.00,WUHU216HW,2013-12-06 13:57:00,
2013-12-06 08:02:00,17.3,14.0,30.16,North,0,5.6,5.6,87,0.00,,,0.00,WUHU216HW,2013-12-06 14:02:00,
2013-12-06 08:07:00,17.1,13.8,30.15,North,0,6.0,6.7,87,0.00,,,0.00,WUHU216HW,2013-12-06 14:07:00,
2013-12-06 08:12:00,17.1,13.8,30.16,NNW,338,3.1,6.7,87,0.00,,,0.00,WUHU216HW,2013-12-06 14:12:00,
2013-12-06 08:17:00,17.3,14.0,30.16,NNW,338,2.5,5.4,87,0.00,,,0.00,WUHU216HW,2013-12-06 14:17:00,
2013-12-06 08:22:00,17.1,13.8,30.17,North,0,2.7,6.9,87,0.00,,,0.00,WUHU216HW,2013-12-06 14:22:00,
2013-12-06 08:27:00,17.3,14.2,30.18,North,0,3.1,6.9,88,0.00,,,0.00,WUHU216HW,2013-12-06 14:27:00,
2013-12-06 08:32:00,17.1,14.0,30.18,NNW,338,5.4,5.6,88,0.00,,,0.00,WUHU216HW,2013-12-06 14:32:00,
2013-12-06 08:37:00,17.1,13.8,30.17,NNW,338,3.8,5.6,87,0.00,,,0.00,WUHU216HW,2013-12-06 14:37:00,
2013-12-06 08:42:00,17.1,14.0,30.16,North,0,2.7,5.4,88,0.00,,,0.00,WUHU216HW,2013-12-06 14:42:00,
2013-12-06 08:47:00,17.3,14.0,30.16,NNE,23,3.6,4.9,87,0.00,,,0.00,WUHU216HW,2013-12-06 14:47:00,
2013-12-06 08:52:00,17.1,13.8,30.16,NNW,338,5.4,6.3,87,0.00,,,0.00,WUHU216HW,2013-12-06 14:52:00,
2013-12-06 08:57:00,17.1,13.8,30.17,NNE,23,4.0,6.3,87,0.00,,,0.00,WUHU216HW,2013-12-06 14:57:00,
2013-12-06 09:02:00,17.1,13.8,30.17,North,0,5.8,5.8,87,0.00,,,0.00,WUHU216HW,2013-12-06 15:02:00,
2013-12-06 09:07:00,17.1,13.8,30.16,North,0,2.7,5.8,87,0.00,,,0.00,WUHU216HW,2013-12-06 15:07:00,
2013-12-06 09:12:00,17.3,14.0,30.17,NNW,338,4.7,6.3,87,0.00,,,0.00,WUHU216HW,2013-12-06 15:12:00,
2013-12-06 09:17:00,17.3,14.0,30.16,North,0,4.7,6.9,87,0.00,,,0.00,WUHU216HW,2013-12-06 15:17:00,
2013-12-06 09:22:00,17.3,14.0,30.17,North,0,7.2,7.2,87,0.00,,,0.00,WUHU216HW,2013-12-06 15:22:00,
2013-12-06 09:27:00,17.5,14.1,30.17,North,0,4.5,7.2,87,0.00,,,0.00,WUHU216HW,2013-12-06 15:27:00,
2013-12-06 09:32:00,17.5,14.1,30.17,North,0,3.4,6.7,87,0.00,,,0.00,WUHU216HW,2013-12-06 15:32:00,
2013-12-06 09:37:00,17.5,14.1,30.17,NNE,23,4.5,7.8,87,0.00,,,0.00,WUHU216HW,2013-12-06 15:37:00,
2013-12-06 09:42:00,17.6,14.3,30.18,NNW,338,1.8,7.8,87,0.00,,,0.00,WUHU216HW,2013-12-06 15:42:00,
2013-12-06 09:47:00,17.6,14.3,30.17,North,0,4.3,4.7,87,0.00,,,0.00,WUHU216HW,2013-12-06 15:47:00,
2013-12-06 09:52:00,17.6,14.3,30.17,North,0,3.8,4.7,87,0.00,,,0.00,WUHU216HW,2013-12-06 15:52:00,
2013-12-06 09:57:00,17.8,14.5,30.18,NNE,23,4.0,4.5,87,0.00,,,0.00,WUHU216HW,2013-12-06 15:57:00,
2013-12-06 10:02:00,17.8,14.8,30.20,NNE,23,4.0,6.3,88,0.00,,,0.00,WUHU216HW,2013-12-06 16:02:00,
2013-12-06 10:07:00,17.8,14.5,30.20,NNE,23,2.9,6.3,87,0.00,,,0.00,WUHU216HW,2013-12-06 16:07:00,
2013-12-06 10:12:00,17.8,14.8,30.20,NNW,338,3.6,6.9,88,0.00,,,0.00,WUHU216HW,2013-12-06 16:12:00,
2013-12-06 10:17:00,17.8,14.8,30.20,North,0,3.1,6.9,88,0.00,,,0.00,WUHU216HW,2013-12-06 16:17:00,
2013-12-06 10:22:00,17.6,14.6,30.19,NNE,23,5.4,7.8,88,0.00,,,0.00,WUHU216HW,2013-12-06 16:22:00,
2013-12-06 10:27:00,17.6,14.6,30.19,North,0,5.1,8.3,88,0.00,,,0.00,WUHU216HW,2013-12-06 16:27:00,
2013-12-06 10:32:00,17.6,14.6,30.20,North,0,4.0,8.3,88,0.00,,,0.00,WUHU216HW,2013-12-06 16:32:00,
2013-12-06 10:37:00,17.8,14.8,30.19,North,0,2.5,8.1,88,0.00,,,0.00,WUHU216HW,2013-12-06 16:37:00,
2013-12-06 10:42:00,17.8,14.5,30.19,NNW,338,6.3,6.5,87,0.00,,,0.00,WUHU216HW,2013-12-06 16:42:00,
2013-12-06 10:47:00,17.8,14.5,30.20,North,0,5.8,6.5,87,0.00,,,0.00,WUHU216HW,2013-12-06 16:47:00,
2013-12-06 10:52:00,18.0,14.7,30.20,North,0,6.3,6.3,87,0.00,,,0.00,WUHU216HW,2013-12-06 16:52:00,
2013-12-06 10:57:00,18.0,14.7,30.20,NNW,338,3.6,6.5,87,0.00,,,0.00,WUHU216HW,2013-12-06 16:57:00,
2013-12-06 11:02:00,18.0,14.7,30.21,NNW,338,2.9,7.6,87,0.00,,,0.00,WUHU216HW,2013-12-06 17:02:00,
2013-12-06 11:07:00,18.0,14.7,30.20,North,0,5.8,7.6,87,0.00,,,0.00,WUHU216HW,2013-12-06 17:07:00,
2013-12-06 11:12:00,17.8,14.2,30.21,NNW,338,4.0,10.5,86,0.00,,,0.00,WUHU216HW,2013-12-06 17:12:00,
2013-12-06 11:17:00,17.8,14.2,30.22,North,0,3.4,10.5,86,0.00,,,0.00,WUHU216HW,2013-12-06 17:17:00,
2013-12-06 11:22:00,17.8,14.2,30.22,North,0,6.3,8.7,86,0.00,,,0.00,WUHU216HW,2013-12-06 17:22:00,
2013-12-06 11:27:00,18.0,14.7,30.19,NNE,23,8.5,8.5,87,0.00,,,0.00,WUHU216HW,2013-12-06 17:27:00,
2013-12-06 11:32:00,18.2,14.9,30.20,North,0,2.7,8.5,87,0.00,,,0.00,WUHU216HW,2013-12-06 17:32:00,
2013-12-06 11:37:00,18.0,14.7,30.19,North,0,6.9,6.9,87,0.00,,,0.00,WUHU216HW,2013-12-06 17:37:00,
2013-12-06 11:42:00,18.0,14.7,30.21,NNW,338,3.4,6.9,87,0.00,,,0.00,WUHU216HW,2013-12-06 17:42:00,
2013-12-06 11:47:00,17.8,14.5,30.22,North,0,2.9,6.0,87,0.00,,,0.00,WUHU216HW,2013-12-06 17:47:00,
2013-12-06 11:52:00,17.8,14.5,30.20,North,0,3.6,6.7,87,0.00,,,0.00,WUHU216HW,2013-12-06 17:52:00,
2013-12-06 11:57:00,17.6,14.3,30.17,NNW,338,6.0,6.7,87,0.00,,,0.00,WUHU216HW,2013-12-06 17:57:00,
2013-12-06 12:02:00,17.8,14.5,30.19,North,0,5.6,8.1,87,0.00,,,0.00,WUHU216HW,2013-12-06 18:02:00,
2013-12-06 12:07:00,18.0,14.7,30.21,NNE,23,1.8,8.1,87,0.00,,,0.00,WUHU216HW,2013-12-06 18:07:00,
2013-12-06 12:12:00,18.2,14.9,30.22,North,0,5.6,5.6,87,0.00,,,0.00,WUHU216HW,2013-12-06 18:12:00,
2013-12-06 12:17:00,18.0,14.7,30.22,NNW,338,3.6,5.6,87,0.00,,,0.00,WUHU216HW,2013-12-06 18:17:00,
2013-12-06 12:22:00,18.2,14.6,30.21,North,0,8.7,8.7,86,0.00,,,0.00,WUHU216HW,2013-12-06 18:22:00,
2013-12-06 12:27:00,18.2,14.9,30.20,North,0,3.6,8.7,87,0.00,,,0.00,WUHU216HW,2013-12-06 18:27:00,
2013-12-06 12:32:00,18.5,15.2,30.20,NNW,338,6.7,6.7,87,0.00,,,0.00,WUHU216HW,2013-12-06 18:32:00,
2013-12-06 12:37:00,18.7,15.1,30.19,NNW,338,4.9,6.7,86,0.00,,,0.00,WUHU216HW,2013-12-06 18:37:00,
2013-12-06 12:42:00,18.7,14.6,30.19,NNW,338,5.4,7.4,84,0.00,,,0.00,WUHU216HW,2013-12-06 18:42:00,
2013-12-06 12:47:00,18.7,14.6,30.19,North,0,5.8,7.4,84,0.00,,,0.00,WUHU216HW,2013-12-06 18:47:00,
2013-12-06 12:52:00,18.9,14.5,30.19,North,0,5.4,6.9,83,0.00,,,0.00,WUHU216HW,2013-12-06 18:52:00,
2013-12-06 12:57:00,19.1,14.7,30.19,North,0,6.7,7.6,83,0.00,,,0.00,WUHU216HW,2013-12-06 18:57:00,
2013-12-06 13:02:00,19.1,14.7,30.19,North,0,11.4,11.4,83,0.00,,,0.00,WUHU216HW,2013-12-06 19:02:00,
2013-12-06 13:07:00,19.1,14.4,30.19,NNW,338,3.4,11.4,82,0.00,,,0.00,WUHU216HW,2013-12-06 19:07:00,
2013-12-06 13:12:00,19.3,14.6,30.19,North,0,7.6,9.8,82,0.00,,,0.00,WUHU216HW,2013-12-06 19:12:00,
2013-12-06 13:17:00,19.4,14.8,30.19,NNW,338,2.9,9.8,82,0.00,,,0.00,WUHU216HW,2013-12-06 19:17:00,
2013-12-06 13:22:00,19.4,14.5,30.19,NNW,338,5.6,7.8,81,0.00,,,0.00,WUHU216HW,2013-12-06 19:22:00,
2013-12-06 13:27:00,19.4,14.5,30.19,North,0,7.4,7.4,81,0.00,,,0.00,WUHU216HW,2013-12-06 19:27:00,
2013-12-06 13:32:00,19.6,14.4,30.19,NW,315,5.8,7.4,80,0.00,,,0.00,WUHU216HW,2013-12-06 19:32:00,
2013-12-06 13:37:00,19.8,14.6,30.20,North,0,4.7,6.7,80,0.00,,,0.00,WUHU216HW,2013-12-06 19:37:00,
2013-12-06 13:42:00,19.8,14.6,30.20,NNE,23,9.4,9.4,80,0.00,,,0.00,WUHU216HW,2013-12-06 19:42:00,
2013-12-06 13:47:00,19.8,14.6,30.19,North,0,8.5,9.4,80,0.00,,,0.00,WUHU216HW,2013-12-06 19:47:00,
2013-12-06 13:52:00,19.8,14.6,30.19,North,0,3.8,8.5,80,0.00,,,0.00,WUHU216HW,2013-12-06 19:52:00,
2013-12-06 13:57:00,19.8,14.6,30.19,North,0,5.1,6.7,80,0.00,,,0.00,WUHU216HW,2013-12-06 19:57:00,
2013-12-06 14:02:00,19.8,14.6,30.19,North,0,5.1,6.7,80,0.00,,,0.00,WUHU216HW,2013-12-06 20:02:00,
2013-12-06 14:07:00,19.8,14.6,30.19,NNW,338,4.7,6.7,80,0.00,,,0.00,WUHU216HW,2013-12-06 20:07:00,
2013-12-06 14:12:00,19.8,14.6,30.19,NW,315,3.6,8.3,80,0.00,,,0.00,WUHU216HW,2013-12-06 20:12:00,
2013-12-06 14:17:00,19.8,14.3,30.19,North,0,8.7,8.7,79,0.00,,,0.00,WUHU216HW,2013-12-06 20:17:00,
2013-12-06 14:22:00,19.8,14.3,30.19,North,0,6.9,8.7,79,0.00,,,0.00,WUHU216HW,2013-12-06 20:22:00,
2013-12-06 14:27:00,19.8,14.6,30.20,NNW,338,6.9,7.4,80,0.00,,,0.00,WUHU216HW,2013-12-06 20:27:00,
2013-12-06 14:32:00,19.8,14.3,30.19,NW,315,6.0,8.3,79,0.00,,,0.00,WUHU216HW,2013-12-06 20:32:00,
2013-12-06 14:37:00,19.8,14.3,30.20,NNE,23,4.9,8.3,79,0.00,,,0.00,WUHU216HW,2013-12-06 20:37:00,
2013-12-06 14:42:00,20.0,14.5,30.20,NNW,338,7.2,7.8,79,0.00,,,0.00,WUHU216HW,2013-12-06 20:42:00,
2013-12-06 14:47:00,19.8,14.3,30.20,NW,315,3.1,11.0,79,0.00,,,0.00,WUHU216HW,2013-12-06 20:47:00,
2013-12-06 14:52:00,19.8,14.3,30.21,North,0,10.5,11.0,79,0.00,,,0.00,WUHU216HW,2013-12-06 20:52:00,
2013-12-06 14:57:00,19.6,13.8,30.21,NNE,23,5.6,10.5,78,0.00,,,0.00,WUHU216HW,2013-12-06 20:57:00,
2013-12-06 15:02:00,19.4,13.6,30.21,North,0,6.3,8.3,78,0.00,,,0.00,WUHU216HW,2013-12-06 21:02:00,
2013-12-06 15:07:00,19.4,13.6,30.21,North,0,6.7,8.3,78,0.00,,,0.00,WUHU216HW,2013-12-06 21:07:00,
2013-12-06 15:12:00,19.3,13.4,30.21,North,0,6.9,10.1,78,0.00,,,0.00,WUHU216HW,2013-12-06 21:12:00,
2013-12-06 15:17:00,19.4,13.6,30.21,NNW,338,3.6,10.1,78,0.00,,,0.00,WUHU216HW,2013-12-06 21:17:00,
2013-12-06 15:22:00,19.3,13.4,30.21,NNE,23,7.8,7.8,78,0.00,,,0.00,WUHU216HW,2013-12-06 21:22:00,
2013-12-06 15:27:00,19.3,13.2,30.21,NNE,23,8.5,8.5,77,0.00,,,0.00,WUHU216HW,2013-12-06 21:27:00,
2013-12-06 15:32:00,19.3,13.2,30.22,North,0,2.7,8.5,77,0.00,,,0.00,WUHU216HW,2013-12-06 21:32:00,
2013-12-06 15:37:00,19.3,12.8,30.22,North,0,8.3,12.5,76,0.00,,,0.00,WUHU216HW,2013-12-06 21:37:00,
2013-12-06 15:42:00,19.3,12.8,30.22,North,0,6.5,12.5,76,0.00,,,0.00,WUHU216HW,2013-12-06 21:42:00,
2013-12-06 15:47:00,19.3,12.8,30.22,NNW,338,4.9,9.6,76,0.00,,,0.00,WUHU216HW,2013-12-06 21:47:00,
2013-12-06 15:52:00,19.3,12.8,30.22,NNE,23,5.1,9.6,76,0.00,,,0.00,WUHU216HW,2013-12-06 21:52:00,
2013-12-06 15:57:00,19.3,12.8,30.22,North,0,3.4,9.8,76,0.00,,,0.00,WUHU216HW,2013-12-06 21:57:00,
2013-12-06 16:02:00,19.1,12.1,30.22,North,0,5.1,9.8,74,0.00,,,0.00,WUHU216HW,2013-12-06 22:02:00,
2013-12-06 16:07:00,19.1,12.1,30.22,North,0,11.4,11.4,74,0.00,,,0.00,WUHU216HW,2013-12-06 22:07:00,
2013-12-06 16:12:00,18.9,11.9,30.23,North,0,4.0,11.4,74,0.00,,,0.00,WUHU216HW,2013-12-06 22:12:00,
2013-12-06 16:17:00,18.7,12.0,30.23,North,0,4.7,9.6,75,0.00,,,0.00,WUHU216HW,2013-12-06 22:17:00,
2013-12-06 16:22:00,18.5,11.5,30.24,NNW,338,8.5,8.5,74,0.00,,,0.00,WUHU216HW,2013-12-06 22:22:00,
2013-12-06 16:27:00,18.4,11.1,30.24,North,0,5.1,8.5,73,0.00,,,0.00,WUHU216HW,2013-12-06 22:27:00,
2013-12-06 16:32:00,18.4,10.4,30.24,North,0,8.5,8.5,71,0.00,,,0.00,WUHU216HW,2013-12-06 22:32:00,
2013-12-06 16:37:00,18.4,10.8,30.24,North,0,6.9,8.5,72,0.00,,,0.00,WUHU216HW,2013-12-06 22:37:00,
2013-12-06 16:42:00,18.4,11.1,30.25,NNW,338,4.7,7.6,73,0.00,,,0.00,WUHU216HW,2013-12-06 22:42:00,
2013-12-06 16:47:00,18.2,10.9,30.25,North,0,9.2,9.2,73,0.00,,,0.00,WUHU216HW,2013-12-06 22:47:00,
2013-12-06 16:52:00,18.2,10.4,30.26,North,0,4.9,9.8,71,0.00,,,0.00,WUHU216HW,2013-12-06 22:52:00,
2013-12-06 16:57:00,18.0,10.7,30.26,North,0,3.6,9.8,73,0.00,,,0.00,WUHU216HW,2013-12-06 22:57:00,
2013-12-06 17:02:00,18.0,10.4,30.26,NNE,23,5.4,6.9,72,0.00,,,0.00,WUHU216HW,2013-12-06 23:02:00,
2013-12-06 17:07:00,18.0,10.7,30.27,NNE,23,3.4,7.6,73,0.00,,,0.00,WUHU216HW,2013-12-06 23:07:00,
2013-12-06 17:12:00,18.0,10.7,30.27,North,0,1.8,7.6,73,0.00,,,0.00,WUHU216HW,2013-12-06 23:12:00,
2013-12-06 17:17:00,18.0,10.7,30.27,North,0,8.1,8.1,73,0.00,,,0.00,WUHU216HW,2013-12-06 23:17:00,
2013-12-06 17:22:00,18.0,10.7,30.27,NNE,23,3.6,8.1,73,0.00,,,0.00,WUHU216HW,2013-12-06 23:22:00,
2013-12-06 17:27:00,17.8,10.5,30.27,NNE,23,4.7,6.9,73,0.00,,,0.00,WUHU216HW,2013-12-06 23:27:00,
2013-12-06 17:32:00,17.8,10.5,30.28,North,0,5.4,6.3,73,0.00,,,0.00,WUHU216HW,2013-12-06 23:32:00,
2013-12-06 17:37:00,17.6,10.5,30.28,North,0,3.4,6.0,73,0.00,,,0.00,WUHU216HW,2013-12-06 23:37:00,
2013-12-06 17:42:00,17.6,10.5,30.28,NNE,23,4.0,7.2,73,0.00,,,0.00,WUHU216HW,2013-12-06 23:42:00,
2013-12-06 17:47:00,17.6,10.5,30.28,North,0,4.7,7.2,73,0.00,,,0.00,WUHU216HW,2013-12-06 23:47:00,
2013-12-06 17:52:00,17.6,9.8,30.29,North,0,4.0,5.4,71,0.00,,,0.00,WUHU216HW,2013-12-06 23:52:00,
2013-12-06 17:57:00,17.6,9.8,30.28,NNW,338,3.6,7.2,71,0.00,,,0.00,WUHU216HW,2013-12-06 23:57:00,
2013-12-06 18:02:00,17.6,9.8,30.29,North,0,2.7,8.5,71,0.00,,,0.00,WUHU216HW,2013-12-07 00:02:00,
2013-12-06 18:07:00,17.6,9.8,30.29,North,0,4.5,8.5,71,0.00,,,0.00,WUHU216HW,2013-12-07 00:07:00,
2013-12-06 18:12:00,17.6,9.8,30.29,North,0,4.0,7.4,71,0.00,,,0.00,WUHU216HW,2013-12-07 00:12:00,
2013-12-06 18:17:00,17.5,9.6,30.29,North,0,3.4,7.4,71,0.00,,,0.00,WUHU216HW,2013-12-07 00:17:00,
2013-12-06 18:22:00,17.5,9.6,30.30,NNE,23,4.3,7.4,71,0.00,,,0.00,WUHU216HW,2013-12-07 00:22:00,
2013-12-06 18:27:00,17.5,9.6,30.30,NNW,338,5.4,6.9,71,0.00,,,0.00,WUHU216HW,2013-12-07 00:27:00,
2013-12-06 18:32:00,17.5,9.4,30.30,North,0,6.9,6.9,70,0.00,,,0.00,WUHU216HW,2013-12-07 00:32:00,
2013-12-06 18:37:00,17.5,9.4,30.30,NNW,338,4.5,8.5,70,0.00,,,0.00,WUHU216HW,2013-12-07 00:37:00,
2013-12-06 18:42:00,17.5,9.6,30.31,NNW,338,4.3,8.5,71,0.00,,,0.00,WUHU216HW,2013-12-07 00:42:00,
2013-12-06 18:47:00,17.3,9.5,30.31,North,0,4.0,7.2,71,0.00,,,0.00,WUHU216HW,2013-12-07 00:47:00,
2013-12-06 18:52:00,17.3,9.5,30.31,North,0,2.9,6.5,71,0.00,,,0.00,WUHU216HW,2013-12-07 00:52:00,
2013-12-06 18:57:00,17.3,9.5,30.31,North,0,4.0,6.3,71,0.00,,,0.00,WUHU216HW,2013-12-07 00:57:00,
2013-12-06 19:02:00,17.3,9.5,30.31,NNE,23,3.6,6.3,71,0.00,,,0.00,WUHU216HW,2013-12-07 01:02:00,
2013-12-06 19:07:00,17.3,9.5,30.31,North,0,4.3,5.1,71,0.00,,,0.00,WUHU216HW,2013-12-07 01:07:00,
2013-12-06 19:12:00,17.3,9.5,30.32,North,0,3.4,5.8,71,0.00,,,0.00,WUHU216HW,2013-12-07 01:12:00,
2013-12-06 19:18:00,17.3,9.5,30.32,North,0,6.5,6.7,71,0.00,,,0.00,WUHU216HW,2013-12-07 01:18:00,
2013-12-06 19:23:00,17.1,9.0,30.32,NNW,338,4.0,6.7,70,0.00,,,0.00,WUHU216HW,2013-12-07 01:23:00,
2013-12-06 19:28:00,17.1,9.0,30.32,North,0,5.1,6.5,70,0.00,,,0.00,WUHU216HW,2013-12-07 01:28:00,
2013-12-06 19:33:00,17.1,9.0,30.32,NNE,23,4.7,6.5,70,0.00,,,0.00,WUHU216HW,2013-12-07 01:33:00,
2013-12-06 19:38:00,17.1,9.0,30.32,North,0,4.3,6.3,70,0.00,,,0.00,WUHU216HW,2013-12-07 01:38:00,
2013-12-06 19:43:00,16.9,8.5,30.32,North,0,1.6,7.8,69,0.00,,,0.00,WUHU216HW,2013-12-07 01:43:00,
2013-12-06 19:48:00,16.9,8.8,30.32,North,0,6.3,7.8,70,0.00,,,0.00,WUHU216HW,2013-12-07 01:48:00,
2013-12-06 19:53:00,16.9,8.5,30.33,NNW,338,2.9,6.3,69,0.00,,,0.00,WUHU216HW,2013-12-07 01:53:00,
2013-12-06 19:58:00,16.9,8.5,30.33,North,0,7.4,7.4,69,0.00,,,0.00,WUHU216HW,2013-12-07 01:58:00,
2013-12-06 20:03:00,16.9,8.5,30.33,NNW,338,2.7,7.4,69,0.00,,,0.00,WUHU216HW,2013-12-07 02:03:00,
2013-12-06 20:08:00,16.9,8.8,30.33,North,0,5.4,6.3,70,0.00,,,0.00,WUHU216HW,2013-12-07 02:08:00,
2013-12-06 20:13:00,16.9,8.5,30.33,North,0,4.5,6.3,69,0.00,,,0.00,WUHU216HW,2013-12-07 02:13:00,
2013-12-06 20:18:00,16.9,8.5,30.33,NNE,23,4.7,4.7,69,0.00,,,0.00,WUHU216HW,2013-12-07 02:18:00,
2013-12-06 20:23:00,16.9,8.8,30.33,North,0,2.5,4.7,70,0.00,,,0.00,WUHU216HW,2013-12-07 02:23:00,
2013-12-06 20:28:00,16.9,8.5,30.33,North,0,2.9,6.5,69,0.00,,,0.00,WUHU216HW,2013-12-07 02:28:00,
2013-12-06 20:33:00,16.9,8.8,30.34,North,0,2.9,6.5,70,0.00,,,0.00,WUHU216HW,2013-12-07 02:33:00,
2013-12-06 20:38:00,16.9,8.5,30.34,NNE,23,5.4,5.4,69,0.00,,,0.00,WUHU216HW,2013-12-07 02:38:00,
2013-12-06 20:43:00,16.7,8.3,30.34,North,0,4.7,6.5,69,0.00,,,0.00,WUHU216HW,2013-12-07 02:43:00,
2013-12-06 20:48:00,16.7,8.3,30.35,NNW,338,2.0,6.5,69,0.00,,,0.00,WUHU216HW,2013-12-07 02:48:00,
2013-12-06 20:53:00,16.7,8.3,30.35,NNE,23,3.6,4.0,69,0.00,,,0.00,WUHU216HW,2013-12-07 02:53:00,
2013-12-06 20:58:00,16.6,8.1,30.35,North,0,3.6,7.2,69,0.00,,,0.00,WUHU216HW,2013-12-07 02:58:00,
2013-12-06 21:03:00,16.6,8.1,30.35,North,0,4.0,7.2,69,0.00,,,0.00,WUHU216HW,2013-12-07 03:03:00,
2013-12-06 21:08:00,16.6,8.1,30.35,North,0,4.7,7.6,69,0.00,,,0.00,WUHU216HW,2013-12-07 03:08:00,
2013-12-06 21:13:00,16.4,7.9,30.35,North,0,5.4,7.6,69,0.00,,,0.00,WUHU216HW,2013-12-07 03:13:00,
2013-12-06 21:18:00,16.2,7.7,30.36,NNW,338,2.7,7.6,69,0.00,,,0.00,WUHU216HW,2013-12-07 03:18:00,
2013-12-06 21:23:00,16.4,7.9,30.36,NNE,23,2.5,5.4,69,0.00,,,0.00,WUHU216HW,2013-12-07 03:23:00,
2013-12-06 21:28:00,16.2,7.7,30.36,NNE,23,3.4,4.3,69,0.00,,,0.00,WUHU216HW,2013-12-07 03:28:00,
2013-12-06 21:33:00,16.2,7.7,30.36,North,0,5.1,5.1,69,0.00,,,0.00,WUHU216HW,2013-12-07 03:33:00,
2013-12-06 21:38:00,16.2,7.7,30.37,North,0,2.9,5.1,69,0.00,,,0.00,WUHU216HW,2013-12-07 03:38:00,
2013-12-06 21:43:00,16.2,7.7,30.36,North,0,6.9,8.3,69,0.00,,,0.00,WUHU216HW,2013-12-07 03:43:00,
2013-12-06 21:48:00,16.2,7.7,30.37,NNW,338,2.0,8.3,69,0.00,,,0.00,WUHU216HW,2013-12-07 03:48:00,
2013-12-06 21:53:00,16.2,7.7,30.37,North,0,3.4,8.5,69,0.00,,,0.00,WUHU216HW,2013-12-07 03:53:00,
2013-12-06 21:58:00,16.2,7.7,30.37,NNW,338,3.4,8.5,69,0.00,,,0.00,WUHU216HW,2013-12-07 03:58:00,
2013-12-06 22:03:00,16.2,7.7,30.38,North,0,3.6,5.8,69,0.00,,,0.00,WUHU216HW,2013-12-07 04:03:00,
2013-12-06 22:08:00,16.2,7.7,30.37,North,0,4.3,6.3,69,0.00,,,0.00,WUHU216HW,2013-12-07 04:08:00,
2013-12-06 22:13:00,15.8,7.4,30.37,North,0,5.1,6.3,69,0.00,,,0.00,WUHU216HW,2013-12-07 04:13:00,
2013-12-06 22:18:00,15.7,7.2,30.38,NNE,23,7.2,7.2,69,0.00,,,0.00,WUHU216HW,2013-12-07 04:18:00,
2013-12-06 22:23:00,15.5,7.1,30.38,NNE,23,3.8,7.2,69,0.00,,,0.00,WUHU216HW,2013-12-07 04:23:00,
2013-12-06 22:28:00,15.3,6.6,30.38,North,0,2.7,6.3,68,0.00,,,0.00,WUHU216HW,2013-12-07 04:28:00,
2013-12-06 22:33:00,14.9,6.6,30.38,NNE,23,2.9,4.9,69,0.00,,,0.00,WUHU216HW,2013-12-07 04:33:00,
2013-12-06 22:38:00,14.8,6.4,30.38,North,0,2.2,4.0,69,0.00,,,0.00,WUHU216HW,2013-12-07 04:38:00,
2013-12-06 22:43:00,14.6,6.3,30.38,North,0,3.4,4.0,69,0.00,,,0.00,WUHU216HW,2013-12-07 04:43:00,
2013-12-06 22:48:00,14.2,6.3,30.38,NNE,23,1.1,4.0,70,0.00,,,0.00,WUHU216HW,2013-12-07 04:48:00,
2013-12-06 22:53:00,14.0,6.1,30.38,North,0,2.2,4.0,70,0.00,,,0.00,WUHU216HW,2013-12-07 04:53:00,
2013-12-06 22:58:00,13.7,6.0,30.38,North,0,1.8,4.0,71,0.00,,,0.00,WUHU216HW,2013-12-07 04:58:00,
2013-12-06 23:01:00,13.7,6.0,30.38,North,0,2.9,4.7,71,0.00,,,0.00,WUHU216HW,2013-12-07 05:01:00,
2013-12-06 23:06:00,13.3,5.7,30.39,NNW,338,2.5,4.7,71,0.00,,,0.00,WUHU216HW,2013-12-07 05:06:00,
2013-12-06 23:11:00,13.1,5.5,30.39,North,0,1.8,4.0,71,0.00,,,0.00,WUHU216HW,2013-12-07 05:11:00,
2013-12-06 23:16:00,13.0,5.3,30.39,North,0,3.4,4.0,71,0.00,,,0.00,WUHU216HW,2013-12-07 05:16:00,
2013-12-06 23:17:00,13.0,5.3,30.39,North,0,4.3,4.3,71,0.00,,,0.00,WUHU216HW,2013-12-07 05:17:00,
2013-12-06 23:22:00,12.8,5.1,30.39,NNW,338,2.0,4.7,71,0.00,,,0.00,WUHU216HW,2013-12-07 05:22:00,
2013-12-06 23:27:00,12.6,5.0,30.39,North,0,4.0,4.7,71,0.00,,,0.00,WUHU216HW,2013-12-07 05:27:00,
2013-12-06 23:32:00,12.4,4.8,30.40,North,0,2.5,4.0,71,0.00,,,0.00,WUHU216HW,2013-12-07 05:32:00,
2013-12-06 23:37:00,12.4,4.8,30.39,NNE,23,3.4,4.0,71,0.00,,,0.00,WUHU216HW,2013-12-07 05:37:00,
2013-12-06 23:42:00,12.2,4.6,30.39,North,0,2.0,3.4,71,0.00,,,0.00,WUHU216HW,2013-12-07 05:42:00,
2013-12-06 23:47:00,12.1,4.4,30.39,North,0,2.5,2.9,71,0.00,,,0.00,WUHU216HW,2013-12-07 05:47:00,
2013-12-06 23:52:00,11.9,4.2,30.39,North,0,2.7,4.0,71,0.00,,,0.00,WUHU216HW,2013-12-07 05:52:00,
2013-12-06 23:57:00,11.9,4.2,30.39,North,0,2.2,4.0,71,0.00,,,0.00,WUHU216HW,2013-12-07 05:57:00,